This demonstration page uses our WeatherBlox Daily Observations layout. Learn more.

Hourly Observations for February 15, 2020

Temp ( °F °C ) Dew Point ( °F °C ) Humidity (%) Winds ( mph kmh ) Pressure ( in mb ) Visibility ( mi km ) Precip ( " mm )
12:54 am 00:54 Clear 27 -2.8 14 -10 58 58 S 13 20 30.02 1017 10 16.0934 0 0
1:54 am 01:54 Clear 28 -2.2 16 -8.9 60 60 S 15 24 30 1016 10 16.0934 0 0
2:54 am 02:54 Clear 25 -3.9 16 -8.9 69 69 S 5 7 30.02 1017 10 16.0934 0 0
3:54 am 03:54 Clear 24 -4.4 16 -8.9 71 71 Calm 30.03 1017 10 16.0934 0 0
4:54 am 04:54 Clear 20 -6.7 15 -9.4 81 81 S 5 7 30.03 1017 10 16.0934 0 0
5:54 am 05:54 Clear 21 -6.1 15 -9.4 78 78 Calm 30.04 1017 10 16.0934 0 0
6:54 am 06:54 Clear 19 -7.2 14 -10 81 81 S 5 7 30.05 1018 10 16.0934 0 0
7:54 am 07:54 Sunny 20 -6.7 15 -9.4 81 81 Calm 30.07 1018 10 16.0934 0 0
8:54 am 08:54 Sunny 28 -2.2 20 -6.7 72 72 Calm 30.1 1019 10 16.0934 0 0
9:54 am 09:54 Sunny 39 3.9 23 -5 53 53 Calm 30.1 1019 10 16.0934 0 0
10:54 am 10:54 Sunny 44 6.7 24 -4.4 45 45 NNW 12 19 30.09 1019 10 16.0934 0 0
11:54 am 11:54 Sunny 47 8.3 25 -3.9 42 42 N 15 24 30.09 1019 10 16.0934 0 0
12:54 pm 12:54 Sunny 49 9.4 24 -4.4 38 38 NW 9 15 30.07 1018 10 16.0934 0 0
1:54 pm 13:54 Sunny 50 10 23 -5 35 35 NNW 8 13 30.06 1018 10 16.0934 0 0
2:54 pm 14:54 Sunny 51 10.6 21 -6.1 31 31 N 9 15 30.06 1018 10 16.0934 0 0
3:54 pm 15:54 Sunny 50 10 20 -6.7 30 30 NW 7 11 30.07 1018 10 16.0934 0 0
4:54 pm 16:54 Sunny 49 9.4 20 -6.7 32 32 N 7 11 30.08 1019 10 16.0934 0 0
5:54 pm 17:54 Sunny 42 5.6 19 -7.2 40 40 Calm 30.09 1019 10 16.0934 0 0
6:54 pm 18:54 Clear 33 0.6 17 -8.3 52 52 Calm 30.12 1020 10 16.0934 0 0
7:54 pm 19:54 Clear 31 -0.6 18 -7.8 59 59 Calm 30.13 1020 10 16.0934 0 0
8:54 pm 20:54 Clear 29 -1.7 18 -7.8 63 63 S 3 6 30.11 1020 10 16.0934 0 0
9:54 pm 21:54 Clear 30 -1.1 20 -6.7 66 66 SE 3 6 30.12 1020 10 16.0934 0 0
10:54 pm 22:54 Clear 30 -1.1 20 -6.7 66 66 SE 3 6 30.12 1020 10 16.0934 0 0
11:54 pm 23:54 Clear 30 -1.1 21 -6.1 69 69 S 3 6 30.11 1020 10 16.0934 0 0

Powered by AerisWeather